1487671201.11,48067,12.13,72498.3,-4.13,-4.29,-4.17,0,*56
1487671202.31,48068,12.13,72500.3,-4.13,-4.25,-4.17,0,*55
1487671203.55,48069,12.13,72500.8,-4.15,-4.29,-4.21,0,*5B
1487671204.75,48070,12.13,72490.8,-4.13,-4.37,-4.37,0,*5D
1487671205.96,48071,12.13,72498.8,-4.13,-4.41,-4.37,0,*5D
1487671207.16,48072,12.13,72500.8,-4.09,-4.25,-4.25,0,*54
1487671208.39,48073,12.13,72502.0,-4.11,-4.13,-4.09,0,*57
1487671209.61,48074,12.13,72498.8,-4.11,-4.13,-4.09,0,*50
1487671210.81,48075,12.13,72502.0,-4.09,-4.09,-3.95,0,*51
1487671212.01,48076,12.13,72506.8,-4.09,-4.09,-3.95,0,*52
1487671213.24,48077,12.13,72504.8,-4.09,-4.01,-3.95,0,*5B
1487671214.45,48078,12.13,72508.5,-4.05,-3.95,-3.91,0,*56
1487671215.66,48079,12.13,72510.0,-4.03,-3.91,-3.87,0,*52
1487671216.87,48080,12.13,72508.8,-4.03,-3.91,-3.91,0,*53
1487671218.08,48081,12.13,72512.8,-4.05,-3.95,-3.95,0,*54
1487671219.31,48082,12.13,72516.5,-4.03,-4.01,-3.91,0,*5F
1487671220.51,48083,12.13,72516.5,-4.03,-4.05,-3.91,0,*5A
1487671221.71,48084,12.13,72518.8,-4.03,-4.09,-4.09,0,*57
1487671222.92,48085,12.13,72522.5,-4.03,-4.21,-4.09,0,*5C
1487671224.12,48086,12.13,72518.8,-4.03,-4.21,-4.17,0,*50
1487671225.35,48087,12.13,72520.5,-4.01,-4.29,-4.17,0,*5B
1487671226.58,48088,12.13,72520.0,-4.01,-4.33,-4.29,0,*52
1487671227.81,48089,12.13,72520.8,-4.01,-4.33,-4.33,0,*58
1487671229.04,48090,12.13,72520.3,-4.01,-4.41,-4.29,0,*5E
1487671230.26,48091,12.13,72526.0,-4.01,-4.45,-4.33,0,*50
1487671231.48,48092,12.13,72526.8,-4.01,-4.45,-4.41,0,*56
1487671232.7,48093,12.13,72524.8,-4.01,-4.45,-4.41,0,*57
1487671233.91,48094,12.13,72530.3,-4.01,-4.45,-4.45,0,*54
1487671235.13,48095,12.13,72530.3,-4.01,-4.45,-4.41,0,*51
1487671236.33,48096,12.13,72530.3,-3.99,-4.41,-4.41,0,*50
1487671237.58,48097,12.13,72534.3,-4.01,-4.69,-4.65,0,*5B
1487671238.86,48098,12.13,72530.8,-4.01,-4.93,-4.85,0,*5F
1487671240.11,48099,12.13,72536.0,-4.01,-5.07,-4.99,0,*5F
1487671241.4,48100,12.13,72530.5,-4.01,-5.07,-5.07,0,*58
1487671242.65,48101,12.13,72532.3,-4.03,-5.31,-5.31,0,*5B
1487671243.85,48102,12.13,72534.0,-4.03,-5.35,-5.35,0,*58
1487671245.09,48103,12.13,72532.0,-4.05,-5.35,-5.27,0,*5C
1487671246.33,48104,12.13,72532.5,-4.05,-5.35,-5.23,0,*5F
1487671247.53,48105,12.13,72528.5,-4.05,-5.47,-5.47,0,*59
1487671248.79,48106,12.13,72526.8,-4.09,-5.65,-5.65,0,*56
1487671250.04,48107,12.13,72530.5,-4.09,-5.85,-5.85,0,*57
1487671251.3,48108,12.13,72528.3,-4.11,-5.97,-5.93,0,*55
1487671252.56,48109,12.13,72526.0,-4.13,-5.81,-5.81,0,*52
1487671253.83,48110,12.13,72520.3,-4.15,-5.73,-5.73,0,*5C
1487671255.06,48111,12.13,72516.0,-4.13,-5.39,-5.27,0,*54
1487671256.33,48112,12.13,72514.3,-4.13,-5.27,-5.27,0,*58
1487671257.56,48113,12.13,72510.5,-4.13,-5.39,-5.31,0,*51
1487671258.82,48114,12.13,72512.0,-4.15,-5.35,-5.31,0,*5C
1487671260.11,48115,12.13,72500.3,-4.15,-5.23,-5.11,0,*58
1487671261.36,48116,12.13,72502.3,-4.15,-5.07,-4.99,0,*5C
1487671262.61,48117,12.13,72496.8,-4.13,-4.85,-4.77,0,*50
1487671263.86,48118,12.13,72496.3,-4.13,-4.73,-4.73,0,*52
1487671265.06,48119,12.13,72494.8,-4.13,-4.61,-4.49,0,*59
1487671266.27,48120,12.13,72492.0,-4.13,-4.49,-4.41,0,*51
1487671267.47,48121,12.13,72490.8,-4.13,-4.37,-4.25,0,*5B
1487671268.68,48122,12.13,72490.8,-4.13,-4.25,-4.09,0,*55
1487671269.88,48123,12.13,72490.0,-4.13,-4.13,-4.09,0,*51
1487671271.11,48124,12.13,72488.3,-4.11,-4.13,-4.09,0,*54
1487671272.33,48125,12.13,72490.5,-4.11,-4.13,-4.09,0,*55
1487671273.53,48126,12.13,72494.0,-4.09,-4.17,-4.13,0,*50
1487671274.73,48127,12.13,72498.0,-4.09,-4.09,-4.09,0,*55
1487671275.93,48128,12.13,72498.5,-4.09,-4.17,-4.13,0,*5E
1487671277.13,48129,12.13,72498.5,-4.09,-4.09,-4.09,0,*5B
1487671278.36,48130,12.13,72498.5,-4.09,-4.01,-3.95,0,*59
1487671279.56,48131,12.13,72500.0,-4.09,-3.95,-3.87,0,*51
1487671280.77,48132,12.13,72494.3,-4.03,-3.75,-3.75,0,*5B
1487671281.98,48133,12.13,72494.3,-4.03,-3.91,-3.91,0,*5A
1487671283.19,48134,12.13,72488.0,-4.03,-4.33,-4.21,0,*5E
1487671284.4,48135,12.13,72486.0,-4.03,-4.21,-4.17,0,*59
1487671285.63,48136,12.13,72486.0,-4.01,-4.17,-4.21,0,*58
1487671286.83,48137,12.13,72482.8,-4.03,-4.33,-4.29,0,*55
1487671288.03,48138,12.13,72488.0,-4.05,-4.45,-4.45,0,*57
1487671289.23,48139,12.13,72484.3,-4.03,-4.41,-4.33,0,*55
1487671290.43,48140,12.13,72490.5,-4.03,-4.57,-4.45,0,*5D
1487671291.65,48141,12.13,72492.5,-4.03,-4.69,-4.65,0,*53
1487671292.91,48142,12.13,72504.0,-4.05,-5.15,-5.15,0,*5A
1487671294.17,48143,12.13,72506.0,-4.05,-5.27,-5.23,0,*5F
1487671295.4,48144,12.13,72510.0,-4.05,-5.03,-4.99,0,*5E
1487671296.66,48145,12.13,72508.0,-4.05,-4.81,-4.81,0,*5D
1487671297.87,48146,12.13,72506.5,-4.05,-4.57,-4.61,0,*5B
1487671299.06,48147,12.13,72508.0,-4.03,-4.41,-4.33,0,*5C
1487671300.26,48148,12.13,72508.3,-4.03,-4.41,-4.33,0,*53
1487671301.46,48149,12.13,72506.8,-4.03,-4.45,-4.29,0,*5D
1487671302.65,48150,12.13,72506.0,-4.05,-4.45,-4.33,0,*58
1487671303.85,48151,12.13,72500.0,-4.03,-4.53,-4.53,0,*5E
1487671305.05,48152,12.19,72506.0,-4.03,-4.53,-4.53,0,*5D
1487671306.26,48153,12.13,72502.5,-4.03,-4.33,-4.29,0,*57
1487671307.46,48154,12.13,72500.8,-4.05,-4.45,-4.37,0,*58
1487671308.66,48155,12.19,72504.0,-4.03,-4.41,-4.33,0,*5F
1487671309.86,48156,12.13,72498.5,-4.03,-4.41,-4.29,0,*57
1487671311.06,48157,12.13,72500.5,-4.03,-4.29,-4.17,0,*55
1487671312.26,48158,12.13,72496.5,-4.03,-4.29,-4.21,0,*5F
1487671313.48,48159,12.13,72498.5,-4.01,-4.45,-4.33,0,*55
1487671314.71,48160,12.13,72496.8,-4.01,-4.57,-4.45,0,*5D
1487671315.93,48161,12.13,72494.8,-4.01,-4.57,-4.45,0,*5C
1487671317.15,48162,12.13,72484.5,-4.01,-4.53,-4.45,0,*5B
1487671318.38,48163,12.13,72480.8,-4.01,-4.65,-4.57,0,*5C
1487671319.61,48164,12.13,72486.8,-4.01,-4.53,-4.53,0,*5A
1487671320.84,48165,12.13,72490.8,-4.01,-4.53,-4.41,0,*58
1487671322.07,48166,12.13,72490.0,-4.01,-4.57,-4.57,0,*58
1487671323.34,48167,12.13,72488.5,-4.01,-4.77,-4.69,0,*56
1487671324.61,48168,12.13,72490.8,-4.01,-4.81,-4.77,0,*5F
1487671325.84,48169,12.13,72498.8,-4.01,-4.65,-4.65,0,*57
1487671327.09,48170,12.13,72496.5,-4.01,-4.69,-4.53,0,*56
1487671328.29,48171,12.13,72496.0,-4.03,-4.53,-4.57,0,*58
1487671329.49,48172,12.13,72494.0,-4.03,-4.45,-4.41,0,*5B
1487671330.67,48173,12.13,72492.3,-4.03,-4.45,-4.45,0,*5E
1487671331.9,48174,12.13,72490.8,-4.01,-4.57,-4.45,0,*58
1487671333.13,48175,12.13,72492.5,-4.01,-4.53,-4.53,0,*5A
1487671334.35,48176,12.13,72494.5,-4.01,-4.53,-4.41,0,*5A
1487671335.57,48177,12.13,72498.3,-4.01,-4.45,-4.41,0,*5C
1487671336.79,48178,12.13,72500.3,-4.01,-4.45,-4.41,0,*53
1487671338.01,48179,12.13,72502.3,-4.01,-4.45,-4.45,0,*56
1487671339.23,48180,12.13,72504.0,-4.01,-4.53,-4.45,0,*57
1487671340.46,48181,12.13,72510.5,-4.01,-4.33,-4.41,0,*54
1487671341.66,48182,12.13,72508.5,-3.99,-4.37,-4.37,0,*54
1487671342.88,48183,12.13,72504.5,-4.01,-4.53,-4.45,0,*54
1487671344.08,48184,12.13,72502.3,-3.99,-4.53,-4.49,0,*59
1487671345.29,48185,12.13,72498.5,-3.99,-4.53,-4.53,0,*53
1487671346.52,48186,12.13,72496.8,-4.01,-4.57,-4.57,0,*56
1487671347.72,48187,12.13,72496.8,-3.99,-4.53,-4.49,0,*5A
1487671348.95,48188,12.13,72494.5,-4.01,-4.57,-4.57,0,*58
1487671350.19,48189,12.13,72494.0,-4.01,-4.57,-4.57,0,*59
1487671351.42,48190,12.13,72502.0,-4.01,-4.65,-4.53,0,*54
1487671352.66,48191,12.13,72504.3,-4.01,-4.69,-4.57,0,*5D
1487671353.94,48192,12.13,72510.5,-4.01,-4.81,-4.77,0,*5A
1487671355.16,48193,12.13,72514.3,-3.99,-4.73,-4.65,0,*53
1487671356.39,48194,12.13,72514.8,-4.01,-4.65,-4.53,0,*50
1487671357.62,48195,12.13,72522.0,-4.01,-4.41,-4.41,0,*54
1487671358.84,48196,12.13,72520.0,-4.01,-4.29,-4.17,0,*5A
1487671360.08,48197,12.13,72526.5,-4.01,-4.33,-4.29,0,*5D
1487671361.3,48198,12.13,72526.8,-4.01,-4.41,-4.45,0,*5D
1487671362.53,48199,12.13,72524.3,-4.01,-4.41,-4.33,0,*5D
1487671363.73,48200,12.13,72520.3,-3.99,-4.13,-4.05,0,*5A
1487671364.93,48201,12.13,72516.8,-3.99,-4.05,-4.05,0,*5C
1487671366.19,48202,12.13,72516.0,-3.99,-4.01,-4.01,0,*5F
1487671367.42,48203,12.13,72522.0,-4.01,-4.09,-4.09,0,*58
1487671368.62,48204,12.13,72512.0,-3.99,-4.41,-4.41,0,*59
1487671369.83,48205,12.13,72504.5,-3.99,-4.65,-4.65,0,*58
1487671371.06,48206,12.13,72510.5,-3.99,-4.73,-4.65,0,*5C
1487671372.34,48207,12.19,72516.0,-4.01,-5.69,-5.69,0,*5C
1487671373.57,48208,12.13,72512.3,-4.01,-6.77,-6.81,0,*5A
1487671374.8,48209,12.13,72516.0,-4.01,-7.15,-7.15,0,*52
1487671376.04,48210,12.13,72516.0,-4.05,-7.35,-7.23,0,*59
1487671377.26,48211,12.13,72508.5,-4.11,-7.23,-7.15,0,*5F
1487671378.47,48212,12.13,72506.0,-4.13,-6.85,-6.77,0,*56
1487671379.7,48213,12.13,72496.0,-4.15,-6.59,-6.59,0,*5C
1487671380.96,48214,12.13,72494.0,-4.17,-5.89,-5.89,0,*59
1487671382.19,48215,12.13,72476.8,-4.17,-5.65,-5.43,0,*5C
1487671383.45,48216,12.13,72474.3,-4.17,-5.19,-5.11,0,*53
1487671384.74,48217,12.13,72470.5,-4.19,-5.15,-5.11,0,*50
1487671385.96,48218,12.19,72464.0,-4.17,-4.99,-4.93,0,*5F
1487671387.21,48219,12.13,72458.5,-4.17,-4.81,-4.69,0,*52
1487671388.46,48220,12.13,72456.8,-4.15,-4.69,-4.65,0,*50
1487671389.67,48221,12.13,72456.0,-4.17,-4.65,-4.57,0,*5E
1487671390.88,48222,12.13,72458.3,-4.13,-4.53,-4.41,0,*5B
1487671392.15,48223,12.13,72456.0,-4.15,-4.77,-4.69,0,*50
1487671393.42,48224,12.13,72462.3,-4.15,-4.93,-4.93,0,*58
1487671394.64,48225,12.13,72466.3,-4.15,-4.99,-4.99,0,*59
1487671395.93,48226,12.19,72468.8,-4.15,-5.07,-5.07,0,*5A
1487671397.19,48227,12.13,72474.3,-4.13,-5.15,-5.15,0,*5D
1487671398.48,48228,12.13,72474.5,-4.15,-5.31,-5.31,0,*54
1487671399.77,48229,12.13,72476.5,-4.15,-5.23,-5.19,0,*5C
1487671401.03,48230,12.13,72472.0,-4.13,-5.07,-5.03,0,*5F
1487671402.32,48231,12.13,72476.8,-4.15,-5.19,-5.19,0,*5C
1487671403.58,48232,12.13,72480.5,-4.17,-5.19,-5.19,0,*5D
1487671404.84,48233,12.13,72490.3,-4.17,-5.23,-5.31,0,*5F
1487671406.11,48234,12.13,72486.5,-4.17,-5.23,-5.23,0,*5B
1487671407.36,48235,12.13,72496.3,-4.17,-5.19,-5.19,0,*5A
1487671408.63,48236,12.13,72494.0,-4.17,-5.07,-5.07,0,*59
1487671409.86,48237,12.13,72492.3,-4.17,-4.99,-4.89,0,*59
1487671411.11,48238,12.13,72496.5,-4.17,-4.77,-4.69,0,*58
1487671412.32,48239,12.13,72498.5,-4.17,-4.57,-4.53,0,*52
1487671413.54,48240,12.13,72494.8,-4.17,-4.69,-4.65,0,*54
1487671414.79,48241,12.13,72496.5,-4.17,-4.77,-4.77,0,*59
1487671416.04,48242,12.13,72500.3,-4.17,-4.69,-4.77,0,*55
1487671417.29,48243,12.13,72500.5,-4.17,-4.81,-4.73,0,*56
1487671418.53,48244,12.13,72502.0,-4.17,-4.77,-4.77,0,*5C
1487671419.79,48245,12.13,72502.5,-4.17,-4.69,-4.69,0,*5D
1487671421.03,48246,12.13,72506.3,-4.17,-4.77,-4.69,0,*51
1487671422.26,48247,12.13,72506.3,-4.17,-4.77,-4.65,0,*5C
1487671423.49,48248,12.13,72502.0,-4.15,-4.65,-4.57,0,*53
1487671424.71,48249,12.13,72498.0,-4.15,-4.45,-4.45,0,*53
1487671425.93,48250,12.13,72494.0,-4.15,-4.45,-4.41,0,*5F
1487671427.17,48251,12.13,72488.8,-4.15,-4.57,-4.53,0,*5E
1487671428.38,48252,12.13,72486.5,-4.13,-4.65,-4.65,0,*5F
1487671429.62,48253,12.13,72486.8,-4.15,-4.99,-4.93,0,*52
1487671430.87,48254,12.13,72488.5,-4.15,-5.11,-4.99,0,*5E
1487671432.16,48255,12.13,72490.3,-4.15,-5.19,-5.07,0,*51
1487671433.44,48256,12.13,72494.3,-4.15,-5.11,-5.07,0,*5A
1487671434.69,48257,12.13,72496.0,-4.15,-4.99,-4.93,0,*56
1487671435.96,48258,12.13,72494.8,-4.15,-4.77,-4.77,0,*53
1487671437.23,48259,12.13,72494.5,-4.15,-4.69,-4.69,0,*52
1487671438.46,48260,12.13,72490.0,-4.15,-4.65,-4.65,0,*58
1487671439.67,48261,12.19,72490.3,-4.17,-4.65,-4.53,0,*5E
1487671440.9,48262,12.13,72484.0,-4.15,-4.65,-4.57,0,*5B
1487671442.18,48263,12.13,72488.0,-4.15,-4.77,-4.81,0,*52
1487671443.46,48264,12.13,72494.8,-4.15,-4.89,-4.81,0,*54
1487671444.69,48265,12.13,72488.3,-4.15,-4.65,-4.65,0,*5D
1487671445.89,48266,12.13,72492.8,-4.13,-4.53,-4.49,0,*53
1487671447.1,48267,12.13,72494.5,-4.13,-4.49,-4.53,0,*52
1487671448.33,48268,12.13,72492.3,-4.15,-4.53,-4.57,0,*54
1487671449.55,48269,12.13,72494.5,-4.15,-4.53,-4.45,0,*56
1487671450.75,48270,12.19,72504.3,-4.13,-4.37,-4.25,0,*5C
1487671451.96,48271,12.13,72502.3,-4.13,-4.41,-4.29,0,*50
1487671453.16,48272,12.13,72506.3,-4.13,-4.49,-4.49,0,*5D
1487671454.36,48273,12.13,72504.8,-4.13,-4.61,-4.49,0,*56
1487671455.57,48274,12.13,72502.3,-4.13,-4.49,-4.49,0,*5B
1487671456.77,48275,12.13,72500.5,-4.13,-4.41,-4.37,0,*5B
1487671457.98,48276,12.13,72498.3,-4.13,-4.41,-4.37,0,*58
1487671459.18,48277,12.13,72502.8,-4.13,-4.49,-4.41,0,*50
1487671460.43,48278,12.13,72498.3,-4.13,-4.77,-4.77,0,*57
1487671461.68,48279,12.13,72502.3,-4.13,-4.73,-4.73,0,*56
1487671462.89,48280,12.13,72504.0,-4.13,-4.65,-4.65,0,*50
1487671464.1,48281,12.19,72510.0,-4.13,-4.61,-4.53,0,*50
1487671465.3,48282,12.13,72506.3,-4.13,-4.65,-4.53,0,*57
1487671466.51,48283,12.13,72500.0,-4.13,-4.53,-4.61,0,*52
1487671467.71,48284,12.13,72506.3,-4.13,-4.61,-4.49,0,*5E
1487671468.92,48285,12.13,72504.5,-4.13,-4.49,-4.41,0,*5D
1487671470.12,48286,12.13,72508.5,-4.13,-4.65,-4.53,0,*53
1487671471.38,48287,12.13,72506.0,-4.13,-4.73,-4.73,0,*57
1487671472.58,48288,12.19,72514.0,-4.13,-4.61,-4.49,0,*52
1487671473.79,48289,12.13,72508.3,-4.13,-4.65,-4.53,0,*5C
1487671475.0,48290,12.13,72504.3,-4.13,-4.65,-4.65,0,*51
1487671476.27,48291,12.13,72504.0,-4.11,-4.73,-4.77,0,*56
1487671477.54,48292,12.13,72506.8,-4.11,-4.93,-4.89,0,*5A
1487671478.81,48293,12.13,72504.5,-4.11,-4.89,-4.85,0,*5C
1487671480.07,48294,12.13,72506.8,-4.13,-4.89,-4.85,0,*59
1487671481.32,48295,12.13,72506.8,-4.13,-4.85,-4.85,0,*54
1487671482.58,48296,12.13,72508.8,-4.13,-4.89,-4.89,0,*57
1487671483.87,48297,12.13,72504.3,-4.15,-5.07,-5.07,0,*50
1487671485.12,48298,12.13,72508.8,-4.13,-4.85,-4.85,0,*59
1487671486.39,48299,12.13,72508.8,-4.15,-4.77,-4.81,0,*57
1487671487.67,48300,12.13,72512.8,-4.15,-4.93,-4.93,0,*5F
1487671488.92,48301,12.13,72516.5,-4.13,-4.89,-4.89,0,*58
1487671490.15,48302,12.13,72522.8,-4.13,-4.77,-4.65,0,*58
1487671491.36,48303,12.13,72520.0,-4.13,-4.65,-4.61,0,*5E
1487671492.59,48304,12.13,72520.3,-4.13,-4.73,-4.65,0,*5A
1487671493.81,48305,12.13,72512.0,-4.13,-4.77,-4.65,0,*5F
1487671495.07,48306,12.19,72510.0,-4.13,-4.81,-4.85,0,*5B
1487671496.32,48307,12.13,72504.5,-4.13,-4.89,-4.85,0,*52
1487671497.57,48308,12.13,72504.0,-4.13,-4.85,-4.77,0,*5C
1487671498.78,48309,12.13,72500.5,-4.13,-4.53,-4.53,0,*50
1487671499.99,48310,12.13,72496.5,-4.13,-4.65,-4.61,0,*5C
1487671501.24,48311,12.13,72486.0,-4.13,-4.73,-4.73,0,*59
1487671502.49,48312,12.13,72482.8,-4.13,-4.89,-4.89,0,*5A
1487671503.75,48313,12.13,72476.0,-4.13,-4.89,-4.85,0,*57
1487671505.02,48314,12.13,72478.0,-4.15,-4.69,-4.77,0,*55
1487671506.22,48315,12.13,72476.3,-4.13,-4.49,-4.49,0,*5D
1487671507.43,48316,12.13,72480.3,-4.13,-4.37,-4.25,0,*5D
1487671508.63,48317,12.13,72478.3,-4.13,-4.25,-4.17,0,*5E
1487671509.84,48318,12.13,72484.3,-4.13,-4.25,-4.25,0,*50
1487671511.06,48319,12.13,72486.5,-4.13,-4.25,-4.25,0,*51
1487671512.29,48320,12.13,72488.3,-4.11,-4.29,-4.29,0,*59
1487671513.51,48321,12.13,72484.0,-4.11,-4.41,-4.41,0,*58
1487671514.73,48322,12.13,72486.8,-4.11,-4.37,-4.29,0,*54
1487671515.94,48323,12.13,72480.8,-4.09,-4.29,-4.29,0,*53
1487671517.14,48324,12.13,72480.5,-4.09,-4.41,-4.29,0,*5A
1487671518.33,48325,12.13,72486.3,-4.09,-4.41,-4.41,0,*55
1487671519.53,48326,12.13,72484.0,-4.09,-4.41,-4.41,0,*56
1487671520.78,48327,12.13,72494.5,-4.11,-4.73,-4.65,0,*59
1487671521.98,48328,12.13,72500.5,-4.09,-4.65,-4.65,0,*58
1487671523.19,48329,12.13,72506.5,-4.09,-4.65,-4.65,0,*59
1487671524.41,48330,12.13,72500.3,-4.11,-4.61,-4.61,0,*58
1487671525.61,48331,12.13,72504.0,-4.09,-4.49,-4.53,0,*5B
1487671526.81,48332,12.13,72504.0,-4.09,-4.49,-4.41,0,*5B
1487671528.03,48333,12.13,72514.5,-4.11,-4.37,-4.29,0,*54
1487671529.24,48334,12.13,72524.0,-4.05,-4.25,-4.25,0,*59
1487671530.43,48335,12.13,72528.8,-4.09,-5.43,-5.43,0,*54
1487671531.69,48336,12.13,72518.0,-4.09,-5.81,-5.81,0,*57
1487671532.96,48337,12.13,72514.8,-4.11,-5.85,-5.77,0,*52
1487671534.2,48338,12.13,72510.0,-4.11,-5.55,-5.51,0,*54
1487671535.43,48339,12.13,72498.8,-4.13,-5.43,-5.31,0,*56
1487671536.63,48340,12.13,72492.3,-4.13,-5.43,-5.43,0,*5D
1487671537.89,48341,12.13,72488.0,-4.13,-5.77,-5.77,0,*5C
1487671539.14,48342,12.13,72492.0,-4.15,-6.13,-6.23,0,*5A
1487671540.42,48343,12.13,72502.3,-4.15,-5.69,-5.61,0,*50
1487671541.69,48344,12.13,72500.3,-4.17,-5.23,-5.11,0,*5C
1487671542.91,48345,12.13,72504.8,-4.17,-4.99,-4.93,0,*56
1487671544.19,48346,12.13,72496.5,-4.15,-4.89,-4.93,0,*56
1487671545.46,48347,12.13,72500.0,-4.15,-4.93,-4.93,0,*5C
1487671546.71,48348,12.13,72500.5,-4.17,-4.93,-4.93,0,*51
1487671547.97,48349,12.13,72496.8,-4.17,-5.11,-5.07,0,*57
1487671549.25,48350,12.13,72500.3,-4.15,-5.19,-5.07,0,*55
1487671550.53,48351,12.13,72504.8,-4.15,-4.89,-4.89,0,*5B
1487671551.76,48352,12.13,72504.3,-4.17,-4.69,-4.57,0,*57
1487671552.99,48353,12.19,72514.5,-4.17,-4.69,-4.65,0,*57
1487671554.23,48354,12.13,72510.5,-4.17,-4.93,-4.93,0,*5C
1487671555.49,48355,12.13,72510.8,-4.17,-4.89,-4.93,0,*56
1487671556.74,48356,12.13,72512.3,-4.17,-4.89,-4.81,0,*56
1487671557.99,48357,12.13,72506.3,-4.17,-4.77,-4.77,0,*5F
1487671559.2,48358,12.13,72498.5,-4.17,-4.65,-4.57,0,*51
1487671560.42,48359,12.13,72494.3,-4.15,-4.53,-4.41,0,*50
1487671561.66,48360,12.13,72492.8,-4.15,-4.57,-4.53,0,*5D
1487671562.88,48361,12.13,72490.5,-4.15,-4.53,-4.45,0,*5F
1487671564.09,48362,12.13,72492.0,-4.13,-4.37,-4.37,0,*5D
1487671565.31,48363,12.13,72494.3,-4.15,-4.45,-4.53,0,*5D
1487671566.56,48364,12.13,72490.5,-4.13,-4.73,-4.73,0,*5B
1487671567.79,48365,12.13,72484.8,-4.13,-4.73,-4.65,0,*5D
1487671569.02,48366,12.13,72486.0,-4.15,-4.65,-4.65,0,*5F
1487671570.23,48367,12.13,72484.0,-4.13,-4.49,-4.41,0,*50
1487671571.42,48368,12.13,72490.8,-4.13,-4.45,-4.33,0,*56
1487671572.63,48369,12.13,72494.0,-4.13,-4.41,-4.29,0,*58
1487671573.85,48370,12.13,72496.3,-4.15,-4.45,-4.45,0,*58
1487671575.06,48371,12.13,72504.5,-4.13,-4.61,-4.53,0,*5E
1487671576.26,48372,12.13,72502.0,-4.13,-4.53,-4.49,0,*57
1487671577.51,48373,12.13,72510.5,-4.13,-4.89,-4.85,0,*51
1487671578.78,48374,12.13,72506.0,-4.13,-5.07,-5.03,0,*5E
1487671580.04,48375,12.13,72502.3,-4.13,-5.31,-5.19,0,*51
1487671581.32,48376,12.13,72504.3,-4.15,-5.11,-5.11,0,*5E
1487671582.57,48377,12.13,72504.5,-4.15,-4.99,-4.89,0,*5E
1487671583.83,48378,12.13,72510.8,-4.13,-4.85,-4.89,0,*5A
1487671585.07,48379,12.13,72492.3,-4.15,-5.55,-5.55,0,*51
1487671586.35,48380,12.13,72496.3,-4.15,-5.81,-5.73,0,*5A
1487671587.6,48381,12.13,72494.5,-4.17,-5.61,-5.69,0,*5C
1487671588.83,48382,12.13,72490.5,-4.17,-5.61,-5.47,0,*53
1487671590.1,48383,12.13,72476.3,-4.19,-5.73,-5.65,0,*5F
1487671591.38,48384,12.13,72480.8,-4.19,-5.73,-5.73,0,*5F
1487671592.65,48385,12.13,72480.5,-4.19,-5.77,-5.77,0,*5E
1487671593.93,48386,12.13,72480.5,-4.19,-5.73,-5.65,0,*5A
1487671595.19,48387,12.13,72486.5,-4.19,-5.65,-5.51,0,*5B
1487671596.47,48388,12.13,72486.3,-4.19,-5.15,-5.03,0,*54
1487671597.7,48389,12.13,72482.3,-4.19,-4.99,-4.99,0,*52
1487671598.92,48390,12.13,72484.0,-4.19,-4.99,-4.99,0,*5A
1487671600.19,48391,12.13,72488.3,-4.19,-4.93,-4.81,0,*58
1487671601.42,48392,12.13,72484.3,-4.19,-4.61,-4.57,0,*5D
1487671602.65,48393,12.13,72486.8,-4.19,-4.61,-4.49,0,*53
1487671603.85,48394,12.13,72480.8,-4.17,-4.57,-4.45,0,*53
1487671605.13,48395,12.13,72480.5,-4.19,-4.85,-4.81,0,*5B
1487671606.4,48396,12.13,72484.8,-4.19,-4.93,-4.81,0,*5F
1487671607.6,48397,12.13,72482.5,-4.17,-4.53,-4.45,0,*54
1487671608.81,48398,12.13,72482.8,-4.17,-4.21,-4.13,0,*5D
1487671610.05,48399,12.13,72480.8,-4.17,-4.01,-3.87,0,*54
1487671611.3,48400,12.13,72486.0,-4.15,-4.13,-4.01,0,*5B
1487671612.53,48401,12.13,72482.5,-4.15,-4.17,-4.13,0,*5D
1487671613.77,48402,12.13,72480.5,-4.13,-4.01,-3.83,0,*51
1487671615.0,48403,12.13,72486.0,-4.13,-3.75,-3.63,0,*5A
1487671616.21,48404,12.19,72484.0,-4.13,-3.83,-3.75,0,*53
1487671617.44,48405,12.13,72482.5,-4.11,-3.87,-3.83,0,*5D
1487671618.64,48406,12.19,72486.8,-4.09,-3.87,-3.87,0,*53
1487671619.84,48407,12.13,72478.5,-4.09,-3.95,-3.87,0,*51
1487671621.05,48408,12.19,72480.3,-4.05,-3.95,-3.83,0,*56
1487671622.27,48409,12.19,72480.5,-4.05,-3.91,-3.91,0,*50
1487671623.48,48410,12.13,72480.3,-4.03,-4.21,-4.21,0,*5E
1487671624.68,48411,12.13,72478.0,-4.03,-4.17,-4.09,0,*50
1487671625.88,48412,12.13,72484.3,-4.03,-4.33,-4.33,0,*5C
1487671627.09,48413,12.13,72480.0,-4.05,-4.57,-4.49,0,*54
1487671628.29,48414,12.13,72468.5,-4.03,-4.41,-4.41,0,*5A
1487671629.5,48415,12.13,72468.3,-4.03,-4.29,-4.21,0,*53
1487671630.69,48416,12.13,72468.5,-4.03,-4.41,-4.41,0,*58
1487671631.91,48417,12.13,72472.5,-4.03,-4.77,-4.65,0,*5A
1487671633.16,48418,12.13,72468.3,-4.03,-4.77,-4.69,0,*59
1487671634.39,48419,12.19,72466.5,-4.05,-4.69,-4.61,0,*59
1487671635.59,48420,12.13,72466.0,-4.03,-4.33,-4.29,0,*56
1487671636.79,48421,12.19,72464.3,-4.03,-4.53,-4.41,0,*5F
1487671637.99,48422,12.13,72462.3,-4.03,-4.65,-4.57,0,*5E
1487671639.18,48423,12.13,72460.0,-4.03,-4.45,-4.45,0,*5E
1487671640.38,48424,12.13,72456.0,-4.03,-4.21,-4.17,0,*5C
1487671641.61,48425,12.13,72456.8,-4.03,-4.05,-4.01,0,*5C
1487671642.84,48426,12.19,72456.5,-4.03,-4.01,-3.87,0,*52
1487671644.04,48427,12.19,72458.3,-4.03,-3.87,-3.79,0,*5B
1487671645.3,48428,12.13,72458.0,-4.01,-3.75,-3.63,0,*50
1487671646.55,48429,12.13,72452.0,-3.99,-3.59,-3.63,0,*59
1487671647.8,48430,12.13,72450.0,-3.99,-3.71,-3.59,0,*52
1487671649.03,48431,12.13,72448.8,-3.99,-3.83,-3.63,0,*57
1487671650.23,48432,12.13,72458.3,-3.99,-3.87,-3.87,0,*5A
1487671651.43,48433,12.13,72470.3,-3.99,-3.87,-3.83,0,*5F
1487671652.67,48434,12.13,72468.5,-3.97,-3.87,-3.87,0,*52
1487671653.9,48435,12.13,72474.0,-3.97,-4.25,-4.29,0,*5F
1487671655.13,48436,12.13,72480.5,-3.97,-4.41,-4.37,0,*51
1487671656.37,48437,12.13,72484.8,-3.97,-4.29,-4.29,0,*51
1487671657.6,48438,12.13,72490.8,-3.97,-4.13,-4.05,0,*59
1487671658.83,48439,12.13,72496.3,-3.97,-4.13,-4.05,0,*58
1487671660.06,48440,12.13,72488.5,-3.95,-4.01,-3.95,0,*59
1487671661.29,48441,12.13,72488.5,-3.97,-4.05,-4.05,0,*50
1487671662.49,48442,12.13,72494.8,-3.95,-4.13,-4.09,0,*5A
1487671663.69,48443,12.13,72494.0,-3.95,-4.09,-4.09,0,*50
1487671664.92,48444,12.13,72488.8,-3.97,-4.13,-4.13,0,*55
1487671666.15,48445,12.19,72480.3,-3.97,-4.13,-3.95,0,*5D
1487671667.4,48446,12.13,72476.0,-3.95,-4.01,-4.01,0,*55
1487671668.61,48447,12.13,72476.8,-3.95,-4.25,-4.25,0,*54
1487671669.81,48448,12.13,72494.0,-3.95,-4.45,-4.37,0,*5E
1487671671.0,48449,12.13,72494.0,-3.95,-4.37,-4.25,0,*59
1487671672.19,48450,12.19,72496.5,-3.95,-4.45,-4.33,0,*53
1487671673.4,48451,12.13,72500.5,-3.95,-4.57,-4.49,0,*5C
1487671674.64,48452,12.13,72496.5,-3.95,-4.77,-4.73,0,*54
1487671675.86,48453,12.13,72490.8,-3.95,-4.99,-5.03,0,*53
1487671677.09,48454,12.13,72486.0,-3.97,-5.43,-5.43,0,*54
1487671678.37,48455,12.13,72484.0,-3.97,-5.81,-5.73,0,*58
1487671679.58,48456,12.19,72490.5,-3.99,-5.51,-5.43,0,*5B
1487671680.83,48457,12.19,72494.0,-3.99,-5.19,-5.19,0,*59
1487671682.12,48458,12.19,72492.5,-4.01,-5.23,-5.23,0,*50
1487671683.34,48459,12.13,72498.5,-4.01,-5.43,-5.35,0,*50
1487671684.59,48460,12.13,72500.0,-4.01,-5.55,-5.55,0,*5B
1487671685.83,48461,12.13,72496.5,-4.03,-5.77,-5.77,0,*58
1487671687.08,48462,12.13,72494.5,-4.03,-5.73,-5.77,0,*5F
1487671688.34,48463,12.13,72496.8,-4.05,-5.89,-5.81,0,*54
1487671689.6,48464,12.13,72496.5,-4.05,-5.81,-5.81,0,*5B
1487671690.85,48465,12.13,72494.5,-4.09,-5.93,-5.85,0,*51
1487671692.13,48466,12.13,72494.0,-4.11,-5.85,-5.81,0,*58
1487671693.39,48467,12.13,72494.8,-4.13,-5.77,-5.69,0,*50
1487671694.6,48468,12.13,72494.0,-4.13,-5.51,-5.39,0,*5E
1487671695.87,48469,12.19,72502.0,-4.13,-5.07,-5.03,0,*55
1487671697.13,48470,12.13,72496.0,-4.13,-4.89,-4.89,0,*59
1487671698.37,48471,12.19,72498.3,-4.13,-4.77,-4.73,0,*5C
1487671699.58,48472,12.13,72500.3,-4.13,-4.61,-4.53,0,*5A
1487671700.85,48473,12.13,72496.3,-4.13,-5.03,-5.03,0,*5A
1487671702.11,48474,12.13,72502.3,-4.13,-5.27,-5.27,0,*5D
1487671703.31,48475,12.13,72506.8,-4.13,-5.39,-5.39,0,*5C
1487671704.57,48476,12.19,72510.3,-4.13,-5.65,-5.65,0,*5F
1487671705.83,48477,12.13,72500.5,-4.13,-5.65,-5.65,0,*5E
1487671707.11,48478,12.13,72504.0,-4.15,-5.81,-5.73,0,*5A
1487671708.31,48479,12.13,72496.0,-4.17,-6.01,-6.01,0,*54
1487671709.55,48480,12.13,72504.3,-4.19,-6.31,-6.31,0,*5C